Regional Weather Roundup
Issued by NWS Little Rock, AR

Home | Current Version | Previous Version | Graphics & Text | Print | Product List | Glossary On
Versions: 1 2 3 4 5 6 7 8 9 10 11 12 13 14 15 16 17 18 19 20 21 22 23 24 25 26 27 28 29 30 31 32 33 34 35 36 37 38 39 40 41 42 43 44 45 46 47 48 49 50
000
ASUS44 KLZK 220305
RWRLZK

WEATHER ROUNDUP FOR ARKANSAS
NATIONAL WEATHER SERVICE LITTLE ROCK AR
900 PM CST SAT JAN 21 2017

NOTE: "FAIR" INDICATES FEW OR NO CLOUDS BELOW 12,000 FEET WITH NO
SIGNIFICANT WEATHER AND/OR OBSTRUCTIONS TO VISIBILITY.

ARZ001-003-010-029-220400-
NORTHWEST ARKANSAS

CITY           SKY/WX    TMP DP  RH WIND       PRES   REMARKS
FAYETTEVILLE   PTCLDY    45  45 100 CALM      29.44S
FORT SMITH     LGT RAIN  56  52  86 W7        29.43R
HARRISON       MOCLDY    51  50  96 SE7       29.49F
BENTONVILLE    PTCLDY   N/A N/A N/A SE6       29.45R
ROGERS         CLOUDY    52  48  86 E10       29.45S
SILOAM SPGS    MOCLDY    52  46  82 CALM      29.45R
HIGHFILL       PTCLDY    52  48  86 SE6       29.45R
SPRINGDALE     CLEAR     54  50  87 E7        29.46S
$$

ARZ004-005-016-220400-
NORTH CENTRAL ARKANSAS

CITY           SKY/WX    TMP DP  RH WIND       PRES   REMARKS
BATESVILLE     MOCLDY    61  54  77 SE5       29.51F
FLIPPIN        CLOUDY    57  45  62 SE5       29.49R
MTN HOME       CLOUDY    59  53  80 S7        29.50S
$$

ARZ040-041-220400-
WEST CENTRAL ARKANSAS

CITY           SKY/WX    TMP DP  RH WIND       PRES   REMARKS
MENA           NOT AVBL
MOUNT IDA      RAIN      58  57  97 E5        29.42F FOG
$$

ARZ009-017-025-026-028-220400-
NORTHEAST ARKANSAS

CITY           SKY/WX    TMP DP  RH WIND       PRES   REMARKS
CORNING        FAIR      57  57 100 SE9       29.54S
JONESBORO      PTCLDY    57  53  86 NE5       29.52F
NEWPORT        CLOUDY    58  55  90 SE10      29.51F
WALNUT RIDGE   CLOUDY    57  54  88 SE6       29.52F
BLYTHEVILLE    PTCLDY    60  51  72 SE7       29.56S
$$

ARZ022-023-033-042-044-220400-
CENTRAL ARKANSAS

CITY           SKY/WX    TMP DP  RH WIND       PRES   REMARKS
LITTLE ROCK    CLOUDY    59  58  96 SE7       29.45F
N LITTLE ROCK    N/A     59  57  91 E6        29.45F
JACKSONVILLE   CLOUDY    61  58  90 E5        29.44F
SEARCY         CLOUDY    60  57  89 N7        29.47F
HOT SPRINGS    CLOUDY    61  60  97 E10G18    29.44S
RUSSELLVILLE   CLOUDY    60  52  74 S7        29.44R
$$

ARZ036-220400-
EAST ARKANSAS

CITY           SKY/WX    TMP DP  RH WIND       PRES   REMARKS
WEST MEMPHIS   CLOUDY    62  54  74 E5        29.51F
$$

ARZ050-053-066-070-073-220400-
SOUTHWEST ARKANSAS

CITY           SKY/WX    TMP DP  RH WIND       PRES   REMARKS
ARKADELPHIA    LGT RAIN  59  55  87 SW13      29.43F
CAMDEN         CLOUDY    55  54  94 CALM      29.43R
TEXARKANA      CLOUDY    58  58 100 S6        29.45R
EL DORADO        N/A    N/A N/A N/A MISG      29.46S
DE QUEEN       PTCLDY    57  57 100 SE3       29.43F
$$

ARZ056-057-069-220400-
SOUTHEAST ARKANSAS

CITY           SKY/WX    TMP DP  RH WIND       PRES   REMARKS
PINE BLUFF     LGT RAIN  62  57  83 S3        29.46R
STUTTGART      CLOUDY    63  52  67 E9        29.45S
MONTICELLO     TSTM      58  54  86 SW22G44   29.50R FOG

$$





USA.gov is the U.S. government's official web portal to all federal, state and local government web resources and services.